This is the latest recevied weather packets stored in our database for station/object KQ4KX. If no packets are shown the sender has not sent any weather packets the latest 10 day(s).
| Time | Temp. | Humidity | Pressure | Rain* | Wind** | Luminosity | Snow |
|---|---|---|---|---|---|---|---|
| 1777568996 | 30° C | 60% | 1012.1 hPa | 0 mm | - | - | - |
| 1777568696 | 30° C | 59% | 1012.1 hPa | 0 mm | - | - | - |
| 1777568396 | 29.44° C | 61% | 1012.2 hPa | 0 mm | - | - | - |
| 1777568095 | 29.44° C | 64% | 1012.3 hPa | 0 mm | - | - | - |
| 1777567766 | 28.89° C | 67% | 1012.1 hPa | 0 mm | - | - | - |
| 1777567436 | 28.33° C | 67% | 1012.2 hPa | 0 mm | - | - | - |
| 1777566836 | 28.33° C | 67% | 1012.4 hPa | 0 mm | - | - | - |
| 1777566535 | 28.33° C | 66% | 1012.5 hPa | 0 mm | - | - | - |
| 1777565876 | 28.33° C | 67% | 1012.7 hPa | 0 mm | - | - | - |
| 1777565546 | 28.33° C | 65% | 1013 hPa | 0 mm | - | - | - |
| 1777565215 | 28.89° C | 66% | 1012.9 hPa | 0 mm | - | - | - |
| 1777564916 | 28.33° C | 67% | 1012.9 hPa | 0 mm | - | - | - |
| 1777564316 | 28.33° C | 71% | 1012.7 hPa | 0 mm | - | - | - |
| 1777563687 | 28.33° C | 71% | 1012.8 hPa | 0 mm | - | - | - |
| 1777563386 | 28.33° C | 73% | 1013 hPa | 0 mm | - | - | - |
| 1777563086 | 28.33° C | 73% | 1013.1 hPa | 0 mm | - | - | - |
| 1777562756 | 27.78° C | 72% | 1013.2 hPa | 0 mm | - | - | - |
| 1777562455 | 27.78° C | 73% | 1013.1 hPa | 0 mm | - | - | - |
| 1777562125 | 27.78° C | 72% | 1013 hPa | 0 mm | - | - | - |
| 1777561527 | 27.22° C | 73% | 1013 hPa | 0 mm | - | - | - |
| 1777560896 | 26.67° C | 74% | 1012.9 hPa | 0 mm | - | - | - |
| 1777560596 | 26.67° C | 75% | 1012.9 hPa | 0 mm | - | - | - |
| 1777560296 | 26.67° C | 77% | 1012.8 hPa | 0 mm | - | - | - |
| 1777559966 | 26.11° C | 79% | 1012.8 hPa | 0 mm | - | - | - |
| 1777559665 | 26.11° C | 80% | 1012.7 hPa | 0 mm | - | - | - |
* Rain latest hour (hover to see other rain measurements)
** Current wind speed in m/s (hover to see current wind gust speed)